星链-34165 (STARLINK-34165)
导读
STARLINK-34165是美国SpaceX公司星链(Starlink)项目的低轨互联网通信卫星,于2025年5月14日由美国发射升空,属于星链第二代组网卫星范畴。星链计划旨在构建全球覆盖的高速卫星互联网星座,该卫星将为全球偏远地区、海洋及高纬度区域提供宽带接入服务,同时延续了星链卫星的激光星间链路技术,可自主规避空间碰撞,进一步推进星链4.2万颗卫星的组网进程。
Basic Information
目录编号:
63997
目录名称:
STARLINK-34165
国际标识:
2025-101D
轨道中心:
EARTH
卫星名称:
星链-34165
卫星全名:
星链-34165 (STARLINK-34165)
卫星状态:
在轨 (已飞行479 天)
发射日期:
2025-05-14 UTC
国别 :
美国
(US)
星等 :
--
Orbit Information
| 数据来源 | 国际轨道数据 |
| 星历时间: | 2026-09-04T13:25:53+0800 1天前 查看轨道信息 |
| 半长轴: | 6861.17km |
| 偏心率: | 0.0001767 |
| 轨道倾角: | 43.005° |
| 近地点辐角 | 273.582° |
| 升交点赤经 | 69.378° |
| 平近点角 | 86.483° |
| 近地点: | 481.82km |
| 远地点: | 484.246km |
| 周期: | 94.266分钟 |
| 每日圈数: | 15.275857 |
Detailed Information
固有亮度:
5
最大亮度:
2.5
卫星平台:
Starlink V1.0
覆盖范围:
全球
运营商:
太空探索技术公司
运营商所在国:
美国
制造商(研发单位):
太空探索技术公司
制造商所在国:
美国
使用方式:
暂无
Satellite Introduction
Starlink 计划是 SpaceX 推出的全球卫星互联网项目,通过发射低轨道卫星,为全球尤其是偏远地区提供高速、低延迟的互联网服务。自 2019 年起,Starlink 已部署数千颗卫星,旨在缩小全球数字鸿沟,推动互联网普及。该项目还为军事、航空等行业提供通信支持,带来广泛经济效益。
2D Orbit Map
3D Orbit Map
Orbit Altitude Analysis Chart
Orbit Inclination Analysis Chart
Orbit Comprehensive Analysis Chart
View Comprehensive ChartConjunction Data List
| Event ID | Objects | TCA | Miss Dist (km) | Collision Risk Probability | Collision Risk Index (CRI) | Action |
|---|---|---|---|---|---|---|
| CDM_260907-082706-399706-659521 |
STARLINK-34165
(63997)
STARLINK-35711
(66595) | 2026-09-07T 08:27:33+0000 |
0.596 km
远距离 | 6.753057E-5 中风险 | 0.72 | |
| CDM_260907-152405-954906-399721 |
STARLINK-31722
(59549)
STARLINK-34165
(63997) | 2026-09-07T 15:24:00+0000 |
0.650 km
远距离 | 2.357154E-5 中风险 | 0.62 | |
| CDM_260907-100106-399706-659521 |
STARLINK-34165
(63997)
STARLINK-35711
(66595) | 2026-09-07T 10:01:42+0000 |
0.967 km
远距离 | 1.43694E-5 中风险 | 0.58 | |
| CDM_260907-130205-954906-399721 |
STARLINK-31722
(59549)
STARLINK-34165
(63997) | 2026-09-07T 13:02:46+0000 |
0.852 km
远距离 | 9.630112E-6 低风险 | 0.55 | |
| CDM_260907-134905-954906-399721 |
STARLINK-31722
(59549)
STARLINK-34165
(63997) | 2026-09-07T 13:49:51+0000 |
1.488 km
极远距离 | 1.551325E-6 低风险 | 0.39 | |
| CDM_260907-143605-954906-399721 |
STARLINK-31722
(59549)
STARLINK-34165
(63997) | 2026-09-07T 14:36:56+0000 |
1.518 km
极远距离 | 1.464205E-6 低风险 | 0.38 | |
| CDM_260907-065306-399706-659521 |
STARLINK-34165
(63997)
STARLINK-35711
(66595) | 2026-09-07T 06:53:24+0000 |
2.036 km
极远距离 | 1.416884E-6 低风险 | 0.38 | |
| CDM_260907-024506-249006-399721 |
STARLINK-32332
(62490)
STARLINK-34165
(63997) | 2026-09-07T 02:45:15+0000 |
2.128 km
极远距离 | 1.396056E-6 低风险 | 0.38 | |
| CDM_260907-184105-863106-399721 |
STARLINK-31064
(58631)
STARLINK-34165
(63997) | 2026-09-07T 18:41:09+0000 |
2.763 km
极远距离 | 9.098247E-7 极低风险 | 0.34 | |
| CDM_260907-112805-954906-399721 |
STARLINK-31722
(59549)
STARLINK-34165
(63997) | 2026-09-07T 11:28:37+0000 |
2.798 km
极远距离 | 4.233238E-7 极低风险 | 0.28 |

